This is the latest recevied weather packets stored in our database for station/object CE3MXM-13. If no packets are shown the sender has not sent any weather packets the latest 10 day(s).
| Time | Temp. | Humidity | Pressure | Rain* | Wind** | Luminosity | Snow |
|---|---|---|---|---|---|---|---|
| 1777295249 | 6.67° C | 98% | 1013.6 hPa | - | - | - | - |
| 1777294949 | 6.67° C | 98% | 1013.7 hPa | - | - | - | - |
| 1777294649 | 5.56° C | 98% | 1013.6 hPa | - | - | - | - |
| 1777294349 | 5° C | 98% | 1013.5 hPa | - | - | - | - |
| 1777294049 | 4.44° C | 98% | 1013.4 hPa | - | - | - | - |
| 1777293749 | 3.89° C | 98% | 1013.3 hPa | - | - | - | - |
| 1777293449 | 3.89° C | 98% | 1013.4 hPa | - | - | - | - |
| 1777293149 | 3.89° C | 98% | 1013.4 hPa | - | - | - | - |
| 1777292849 | 3.33° C | 98% | 1013.3 hPa | - | - | - | - |
| 1777292548 | 3.33° C | 98% | 1013.3 hPa | - | - | - | - |
| 1777292249 | 3.33° C | 98% | 1013.4 hPa | - | - | - | - |
| 1777291948 | 2.78° C | 98% | 1013.3 hPa | - | - | - | - |
| 1777291648 | 2.22° C | 98% | 1013.4 hPa | - | - | - | - |
| 1777291348 | 2.22° C | 97% | 1013.4 hPa | - | - | - | - |
| 1777291048 | 1.67° C | 97% | 1013.4 hPa | - | - | - | - |
| 1777290748 | 1.67° C | 97% | 1013.5 hPa | - | - | - | - |
| 1777290448 | 1.67° C | 97% | 1013.3 hPa | - | - | - | - |
| 1777290148 | 1.11° C | 97% | 1013.2 hPa | - | - | - | - |
| 1777289848 | 1.11° C | 97% | 1013.3 hPa | - | - | - | - |
| 1777289548 | 1.67° C | 97% | 1013.2 hPa | - | - | - | - |
| 1777289248 | 1.67° C | 97% | 1013.3 hPa | - | - | - | - |
| 1777288947 | 1.67° C | 97% | 1013.4 hPa | - | - | - | - |
| 1777288647 | 1.67° C | 97% | 1013.3 hPa | - | - | - | - |
| 1777288347 | 1.67° C | 97% | 1013.2 hPa | - | - | - | - |
| 1777288047 | 1.67° C | 97% | 1013 hPa | - | - | - | - |
* Rain since midnight (hover to see other rain measurements)
** Current wind speed in m/s (hover to see current wind gust speed)